KB1EJH-13 Weather Reports


Display with metric or nautical units.
time (UTC)temp
F
wind
direction
speed
MPH
gust
MPH
rain 1hr
in
rain 24hr
in
rain mn
in
humidity
%
barometer
mb
20210619162341 80 178 1.0 5.0 0.00 0.00 0.00 76 1009.8
20210619161841 80 273 1.0 6.0 0.00 0.00 0.00 77 1009.9
20210619161341 80 207 2.0 7.0 0.00 0.00 0.00 76 1009.9
20210619160841 80 255 2.0 4.0 0.00 0.00 0.00 76 1009.9
20210619160341 80 205 2.0 5.0 0.00 0.00 0.00 76 1009.9
20210619155841 80 234 1.0 7.0 0.00 0.00 0.00 76 1010.1
20210619155341 79 220 1.0 2.0 0.00 0.00 0.00 77 1010.1
20210619154841 79 221 2.0 4.0 0.00 0.00 0.00 76 1010.1
20210619154341 79 281 3.0 8.0 0.00 0.00 0.00 76 1010.0
20210619153841 79 248 3.0 8.0 0.00 0.00 0.00 75 1010.0
20210619153341 79 288 3.0 7.0 0.00 0.00 0.00 74 1010.0
20210619152841 79 211 3.0 8.0 0.00 0.00 0.00 74 1010.1
20210619152341 79 232 3.0 7.0 0.00 0.00 0.00 74 1010.0
20210619151841 79 195 3.0 12.0 0.00 0.00 0.00 75 1010.0
20210619151341 79 244 2.0 9.0 0.00 0.00 0.00 75 1010.0
20210619150841 79 244 2.0 5.0 0.00 0.00 0.00 76 1010.0
20210619150341 78 224 2.0 4.0 0.00 0.00 0.00 76 1009.9
20210619145841 78 230 1.0 6.0 0.00 0.00 0.00 76 1009.8
20210619145341 78 197 1.0 4.0 0.00 0.00 0.00 77 1009.8
20210619144841 78 224 1.0 3.0 0.00 0.00 0.00 78 1009.8
20210619144341 78 121 2.0 3.0 0.00 0.00 0.00 77 1009.7
20210619143841 78 213 2.0 6.0 0.00 0.00 0.00 76 1009.6
20210619143341 78 240 2.0 4.0 0.00 0.00 0.00 76 1009.6
20210619142841 79 240 2.0 5.0 0.00 0.00 0.00 76 1009.6
20210619142341 79 232 1.0 4.0 0.00 0.00 0.00 75 1009.6
20210619141841 79 219 2.0 5.0 0.00 0.00 0.00 74 1009.5
20210619141341 79 199 2.0 4.0 0.00 0.00 0.00 74 1009.6
20210619140841 79 254 2.0 4.0 0.00 0.00 0.00 73 1009.7
20210619140341 80 214 2.0 8.0 0.00 0.00 0.00 72 1009.6
20210619135842 80 200 2.0 8.0 0.00 0.00 0.00 71 1009.7
20210619135341 80 244 2.0 6.0 0.00 0.00 0.00 70 1009.6
20210619134842 81 227 2.0 3.0 0.00 0.00 0.00 70 1009.6
20210619134342 81 271 2.0 8.0 0.00 0.00 0.00 69 1009.6
20210619133842 81 291 2.0 8.0 0.00 0.00 0.00 71 1009.7
20210619133342 81 221 2.0 6.0 0.00 0.00 0.00 70 1009.8
20210619132842 81 190 2.0 4.0 0.00 0.00 0.00 71 1009.8
20210619132342 80 265 3.0 6.0 0.00 0.00 0.00 71 1009.7
20210619131842 80 288 4.0 9.0 0.00 0.00 0.00 71 1009.7
20210619131342 80 186 3.0 11.0 0.00 0.00 0.00 71 1009.7
20210619130842 80 333 3.0 7.0 0.00 0.00 0.00 71 1009.8
20210619130342 79 148 3.0 8.0 0.00 0.00 0.00 72 1009.8
20210619125842 79 225 3.0 8.0 0.00 0.00 0.00 72 1009.8
20210619125342 79 225 3.0 8.0 0.00 0.00 0.00 73 1009.8
20210619124842 78 303 3.0 9.0 0.00 0.00 0.00 74 1009.7
20210619124342 78 134 2.0 9.0 0.00 0.00 0.00 74 1009.8
20210619123842 78 240 2.0 5.0 0.00 0.00 0.00 76 1009.7
20210619123342 77 254 2.0 8.0 0.00 0.00 0.00 76 1009.9
20210619122842 77 242 2.0 4.0 0.00 0.00 0.00 75 1009.9
20210619122342 77 252 3.0 11.0 0.00 0.00 0.00 76 1010.0
20210619121842 76 213 2.0 6.0 0.00 0.00 0.00 76 1010.0
20210619121342 76 194 2.0 7.0 0.00 0.00 0.00 77 1009.8
20210619120842 76 190 3.0 9.0 0.00 0.00 0.00 77 1009.7
20210619120342 76 194 2.0 9.0 0.00 0.00 0.00 77 1009.7
20210619115843 76 142 3.0 7.0 0.00 0.00 0.00 77 1009.6
20210619115342 76 224 3.0 8.0 0.00 0.00 0.00 77 1009.6
20210619114842 76 260 3.0 8.0 0.00 0.00 0.00 77 1009.6
20210619114342 75 209 3.0 9.0 0.00 0.00 0.00 78 1009.5
20210619113842 75 141 3.0 7.0 0.00 0.00 0.00 79 1009.5
20210619113342 74 300 3.0 9.0 0.00 0.00 0.00 78 1009.4
20210619112843 74 128 2.0 5.0 0.00 0.00 0.00 79 1009.4
20210619112342 74 0 3.0 8.0 0.00 0.00 0.00 79 1009.6
20210619111842 74 0 3.0 8.0 0.00 0.00 0.00 79 1009.5
20210619111342 74 0 2.0 6.0 0.00 0.00 0.00 80 1009.4
20210619110842 74 0 2.0 8.0 0.00 0.00 0.00 80 1009.5
20210619110342 74 0 2.0 3.0 0.00 0.00 0.00 79 1009.6
20210619105842 74 223 2.0 4.0 0.00 0.00 0.00 79 1009.3
20210619105342 74 273 2.0 9.0 0.00 0.00 0.00 79 1009.3
20210619104842 73 0 2.0 9.0 0.00 0.00 0.00 79 1009.1
20210619104342 73 0 3.0 12.0 0.00 0.00 0.00 79 1009.0
20210619103842 73 0 3.0 6.0 0.00 0.00 0.00 79 1009.0
20210619103342 73 0 3.0 8.0 0.00 0.00 0.00 79 1009.0
20210619102844 73 250 3.0 8.0 0.00 0.00 0.00 79 1009.0
20210619102342 73 161 2.0 8.0 0.00 0.00 0.00 78 1009.0
20210619101842 73 244 2.0 7.0 0.00 0.00 0.00 78 1009.0
20210619101342 73 218 2.0 9.0 0.00 0.00 0.00 78 1009.0
20210619100842 73 184 2.0 4.0 0.00 0.00 0.00 78 1009.0
20210619100342 73 217 2.0 5.0 0.00 0.00 0.00 78 1009.1
20210619095843 73 265 2.0 8.0 0.00 0.00 0.00 78 1009.2
20210619095342 73 177 2.0 8.0 0.00 0.00 0.00 78 1009.1
20210619094842 73 236 2.0 6.0 0.00 0.00 0.00 77 1009.1
20210619094342 73 172 2.0 5.0 0.00 0.00 0.00 77 1009.1
20210619093842 73 217 2.0 8.0 0.00 0.00 0.00 77 1009.1
20210619093342 73 244 2.0 5.0 0.00 0.00 0.00 77 1009.1
20210619092842 73 188 2.0 6.0 0.00 0.00 0.00 77 1009.2
20210619092342 73 238 2.0 9.0 0.00 0.00 0.00 77 1009.2
20210619091842 73 212 2.0 7.0 0.00 0.00 0.00 77 1009.2
20210619091342 73 200 2.0 8.0 0.00 0.00 0.00 77 1009.3
20210619090842 73 209 2.0 7.0 0.00 0.00 0.00 77 1009.4
20210619090342 73 219 3.0 7.0 0.00 0.00 0.00 77 1009.4
20210619085842 73 182 3.0 8.0 0.00 0.00 0.00 77 1009.4
20210619085342 73 209 3.0 8.0 0.00 0.00 0.00 77 1009.5
20210619084842 73 227 2.0 9.0 0.00 0.00 0.00 78 1009.5
20210619084343 72 162 2.0 10.0 0.00 0.00 0.00 79 1009.6
20210619083843 72 136 1.0 10.0 0.00 0.00 0.00 79 1009.7
20210619083343 72 159 2.0 5.0 0.00 0.00 0.00 79 1009.6
20210619082845 72 174 2.0 5.0 0.00 0.00 0.00 80 1009.7
20210619082343 72 240 3.0 10.0 0.00 0.00 0.00 80 1009.6
20210619081843 72 164 2.0 6.0 0.00 0.00 0.00 80 1009.6
20210619081343 72 236 2.0 6.0 0.00 0.00 0.00 81 1009.6
20210619080843 72 179 2.0 9.0 0.00 0.00 0.00 81 1009.6
20210619080343 72 224 2.0 4.0 0.00 0.00 0.00 81 1009.7
20210619075843 72 179 2.0 5.0 0.00 0.00 0.00 81 1009.6
20210619075343 72 165 2.0 5.0 0.00 0.00 0.00 81 1009.7
20210619074843 72 230 2.0 7.0 0.00 0.00 0.00 81 1009.7
20210619074343 72 205 2.0 6.0 0.00 0.00 0.00 81 1009.7
20210619073843 72 157 1.0 5.0 0.00 0.00 0.00 81 1009.8
20210619073343 72 233 2.0 6.0 0.00 0.00 0.00 81 1009.8
20210619072843 72 158 2.0 5.0 0.00 0.00 0.00 80 1009.8
20210619072343 72 212 3.0 4.0 0.00 0.00 0.00 81 1009.8
20210619071843 72 192 3.0 9.0 0.00 0.00 0.00 81 1009.8
20210619071343 72 143 2.0 6.0 0.00 0.00 0.00 81 1009.6
20210619070843 72 256 2.0 6.0 0.00 0.00 0.00 81 1009.7
20210619070343 72 186 2.0 6.0 0.00 0.00 0.00 81 1009.8
20210619065845 72 229 2.0 8.0 0.00 0.00 0.00 81 1009.9
20210619065343 72 161 3.0 8.0 0.00 0.00 0.00 80 1009.8
20210619064843 72 236 2.0 8.0 0.00 0.00 0.00 80 1010.0
20210619064343 72 172 2.0 4.0 0.00 0.00 0.00 80 1010.2
20210619063843 72 193 2.0 6.0 0.00 0.00 0.00 80 1010.3
20210619063343 72 108 3.0 7.0 0.00 0.00 0.00 80 1010.2
20210619062844 72 248 3.0 10.0 0.00 0.00 0.00 80 1010.4
20210619062343 72 202 3.0 7.0 0.00 0.00 0.00 80 1010.5
20210619061843 72 234 2.0 7.0 0.00 0.00 0.00 80 1010.5
20210619061343 71 168 3.0 6.0 0.00 0.00 0.00 80 1010.5
20210619060843 71 205 3.0 8.0 0.00 0.00 0.00 80 1010.7
20210619060343 71 202 3.0 6.0 0.00 0.00 0.00 80 1010.9
20210619055843 71 246 2.0 9.0 0.00 0.00 0.00 80 1010.9
20210619055343 71 201 2.0 5.0 0.00 0.00 0.00 80 1011.1
20210619054843 71 271 3.0 7.0 0.00 0.00 0.00 80 1011.1
20210619054343 71 103 3.0 11.0 0.00 0.00 0.00 80 1011.1
20210619053843 71 147 2.0 10.0 0.00 0.00 0.00 80 1011.2
20210619053343 70 190 2.0 6.0 0.00 0.00 0.00 80 1011.3
20210619052845 70 227 3.0 8.0 0.00 0.00 0.00 80 1011.6
20210619052343 70 178 3.0 9.0 0.00 0.00 0.00 80 1011.6
20210619051843 70 242 3.0 10.0 0.00 0.00 0.00 80 1011.6
20210619051343 70 200 3.0 8.0 0.00 0.00 0.00 80 1011.8
20210619050843 70 207 3.0 8.0 0.00 0.00 0.00 80 1011.9
20210619050343 70 216 2.0 9.0 0.00 0.00 0.00 80 1011.8
20210619045845 70 140 2.0 4.0 0.00 0.00 0.00 79 1012.0
20210619045343 70 193 2.0 8.0 0.00 0.00 0.00 79 1012.1
20210619044843 70 176 3.0 5.0 0.00 0.00 0.00 79 1012.1
20210619044343 70 237 3.0 6.0 0.00 0.00 0.00 79 1012.2
20210619043843 70 246 2.0 5.0 0.00 0.00 0.00 78 1012.2
20210619043343 70 239 2.0 7.0 0.00 0.00 0.00 78 1012.2
20210619042843 70 232 2.0 9.0 0.00 0.00 0.00 78 1012.2
20210619042343 69 167 2.0 5.0 0.00 0.00 0.00 78 1012.1
20210619041843 69 148 2.0 5.0 0.00 0.00 0.00 77 1012.2
20210619041343 70 186 2.0 5.0 0.00 0.00 0.00 77 1012.1
20210619040843 70 235 2.0 5.0 0.00 0.00 0.00 77 1012.0
20210619040343 70 320 2.0 7.0 0.00 0.00 0.00 76 1012.0
20210619035843 70 227 2.0 6.0 0.00 0.00 0.00 76 1012.0
20210619035343 70 203 2.0 4.0 0.00 0.00 0.00 75 1012.1
20210619034843 70 232 2.0 7.0 0.00 0.00 0.00 74 1012.1
20210619034343 70 226 2.0 6.0 0.00 0.00 0.00 74 1012.2
20210619033844 70 177 2.0 7.0 0.00 0.00 0.00 73 1012.3
20210619033344 70 161 2.0 8.0 0.00 0.00 0.00 73 1012.3
20210619032846 70 164 2.0 8.0 0.00 0.00 0.00 72 1012.4
20210619032344 70 196 2.0 7.0 0.00 0.00 0.00 72 1012.5
20210619031844 70 249 2.0 8.0 0.00 0.00 0.00 71 1012.4
20210619031344 70 157 2.0 8.0 0.00 0.00 0.00 71 1012.5
20210619030844 70 190 2.0 7.0 0.00 0.00 0.00 70 1012.6
20210619030344 71 219 2.0 6.0 0.00 0.00 0.00 70 1012.7
20210619025846 71 235 2.0 4.0 0.00 0.00 0.00 69 1012.8
20210619025344 71 177 1.0 6.0 0.00 0.00 0.00 69 1012.9
20210619024844 71 180 2.0 4.0 0.00 0.00 0.00 68 1012.9
20210619024344 71 246 3.0 7.0 0.00 0.00 0.00 67 1013.1
20210619023844 71 188 2.0 11.0 0.00 0.00 0.00 67 1013.0
20210619023344 71 219 2.0 6.0 0.00 0.00 0.00 66 1013.0
20210619022844 71 174 3.0 7.0 0.00 0.00 0.00 65 1013.1
20210619022344 71 207 3.0 6.0 0.00 0.00 0.00 65 1013.0
20210619021844 71 150 2.0 6.0 0.00 0.00 0.00 64 1013.1
20210619021344 71 190 2.0 5.0 0.00 0.00 0.00 64 1013.0
20210619020844 71 0 2.0 7.0 0.00 0.00 0.00 63 1013.1
20210619020344 71 167 2.0 5.0 0.00 0.00 0.00 62 1013.1
20210619015844 71 173 2.0 8.0 0.00 0.00 0.00 62 1013.0
20210619015344 72 191 2.0 6.0 0.00 0.00 0.00 62 1012.9
20210619014844 72 0 2.0 3.0 0.00 0.00 0.00 61 1012.7
20210619014344 72 130 2.0 5.0 0.00 0.00 0.00 61 1012.7
20210619013844 72 181 2.0 6.0 0.00 0.00 0.00 61 1012.7
20210619013344 72 165 2.0 5.0 0.00 0.00 0.00 60 1012.5
20210619012844 72 172 2.0 5.0 0.00 0.00 0.00 59 1012.7
20210619012344 72 213 2.0 6.0 0.00 0.00 0.00 59 1012.7
20210619011844 73 216 2.0 6.0 0.00 0.00 0.00 59 1012.6
20210619011344 73 0 2.0 1.0 0.00 0.00 0.00 59 1012.7
20210619010844 73 78 2.0 4.0 0.00 0.00 0.00 58 1012.7
20210619010344 73 201 2.0 7.0 0.00 0.00 0.00 59 1012.8
20210619005844 73 212 2.0 9.0 0.00 0.00 0.00 59 1012.8
20210619005344 73 226 2.0 7.0 0.00 0.00 0.00 58 1012.8
20210619004844 73 92 2.0 8.0 0.00 0.00 0.00 59 1012.8
20210619004344 73 206 2.0 5.0 0.00 0.00 0.00 59 1012.7
20210619003844 73 159 2.0 5.0 0.00 0.00 0.00 59 1012.5
20210619003344 74 150 3.0 8.0 0.00 0.00 0.00 59 1012.5
20210619002844 74 157 3.0 8.0 0.00 0.00 0.00 61 1012.5
20210619002344 74 160 2.0 8.0 0.00 0.00 0.00 61 1012.5
20210619001844 75 150 1.0 5.0 0.00 0.00 0.00 62 1012.4
20210619001344 75 134 2.0 9.0 0.00 0.00 0.00 62 1012.3
20210619000844 75 0 1.0 5.0 0.00 0.00 0.00 61 1012.5
20210619000345 76 0 1.0 3.0 0.00 0.00 0.00 61 1012.5
20210618235844 76 0 2.0 5.0 0.00 0.00 0.00 60 1012.4
20210618235344 77 206 3.0 10.0 0.00 0.00 0.00 59 1012.4
20210618234844 77 0 2.0 11.0 0.00 0.00 0.00 58 1012.2
20210618234344 78 178 2.0 12.0 0.00 0.00 0.00 56 1012.1
20210618233844 78 156 3.0 12.0 0.00 0.00 0.00 57 1012.1
20210618233344 79 226 2.0 8.0 0.00 0.00 0.00 57 1012.3
20210618232844 79 140 2.0 8.0 0.00 0.00 0.00 56 1012.4
20210618232344 79 237 1.0 4.0 0.00 0.00 0.00 57 1012.1
20210618231844 79 194 1.0 3.0 0.00 0.00 0.00 57 1012.2
20210618231344 79 355 1.0 4.0 0.00 0.00 0.00 58 1012.3
20210618230844 79 171 1.0 4.0 0.00 0.00 0.00 58 1012.3
20210618230344 79 171 2.0 4.0 0.00 0.00 0.00 57 1012.3
20210618225844 79 178 2.0 7.0 0.00 0.00 0.00 54 1012.4
20210618225344 80 159 2.0 6.0 0.00 0.00 0.00 56 1012.3
20210618224844 80 168 2.0 8.0 0.00 0.00 0.00 54 1012.4
20210618224344 80 169 2.0 6.0 0.00 0.00 0.00 57 1012.5
20210618223845 80 184 1.0 5.0 0.00 0.00 0.00 56 1012.5
20210618223345 80 134 2.0 4.0 0.00 0.00 0.00 56 1012.6
20210618222845 80 201 2.0 4.0 0.00 0.00 0.00 55 1012.6
20210618222345 80 158 2.0 6.0 0.00 0.00 0.00 53 1012.8
20210618221845 80 208 2.0 6.0 0.00 0.00 0.00 51 1012.9
20210618221345 80 234 2.0 7.0 0.00 0.00 0.00 52 1013.0
20210618220845 80 223 3.0 7.0 0.00 0.00 0.00 53 1013.1
20210618220345 80 205 3.0 9.0 0.00 0.00 0.00 52 1013.2
20210618215845 81 192 3.0 9.0 0.00 0.00 0.00 51 1013.2
20210618215345 81 174 2.0 6.0 0.00 0.00 0.00 51 1013.3
20210618214845 81 200 3.0 8.0 0.00 0.00 0.00 52 1013.3
20210618214345 81 199 3.0 7.0 0.00 0.00 0.00 49 1013.3
20210618213845 82 206 2.0 9.0 0.00 0.00 0.00 49 1013.4
20210618213345 82 216 2.0 8.0 0.00 0.00 0.00 49 1013.5
20210618212845 82 220 3.0 8.0 0.00 0.00 0.00 50 1013.6
20210618212345 82 242 3.0 10.0 0.00 0.00 0.00 48 1013.6
20210618211845 82 184 5.0 10.0 0.00 0.00 0.00 46 1013.6
20210618211345 82 211 5.0 13.0 0.00 0.00 0.00 47 1013.8
20210618210845 83 236 4.0 13.0 0.00 0.00 0.00 46 1013.8
20210618210345 83 257 4.0 9.0 0.00 0.00 0.00 44 1013.9
20210618205845 83 180 3.0 8.0 0.00 0.00 0.00 46 1014.1
20210618205345 83 142 4.0 8.0 0.00 0.00 0.00 46 1014.2
20210618204845 83 105 4.0 9.0 0.00 0.00 0.00 43 1014.3
20210618204345 84 176 4.0 10.0 0.00 0.00 0.00 42 1014.5
20210618203845 84 250 4.0 11.0 0.00 0.00 0.00 42 1014.3
20210618203345 84 279 4.0 5.0 0.00 0.00 0.00 42 1014.6
20210618202845 84 246 4.0 11.0 0.00 0.00 0.00 41 1014.7
20210618202345 84 190 4.0 3.0 0.00 0.00 0.00 40 1014.6
20210618201845 84 232 3.0 8.0 0.00 0.00 0.00 42 1014.6
20210618201345 84 167 4.0 9.0 0.00 0.00 0.00 40 1014.7
20210618200845 84 177 4.0 9.0 0.00 0.00 0.00 40 1014.8
20210618200345 84 244 4.0 9.0 0.00 0.00 0.00 41 1014.9
20210618195845 84 300 4.0 8.0 0.00 0.00 0.00 40 1014.9
20210618195345 84 294 3.0 12.0 0.00 0.00 0.00 39 1015.0
20210618194845 84 100 3.0 9.0 0.00 0.00 0.00 45 1014.9
20210618194345 84 265 4.0 9.0 0.00 0.00 0.00 43 1014.9
20210618193845 84 207 4.0 10.0 0.00 0.00 0.00 40 1015.1
20210618193345 84 306 3.0 10.0 0.00 0.00 0.00 39 1015.2
20210618192845 84 239 3.0 10.0 0.00 0.00 0.00 39 1015.3
20210618192345 84 173 3.0 8.0 0.00 0.00 0.00 39 1015.2
20210618191845 84 248 4.0 10.0 0.00 0.00 0.00 38 1015.3
20210618191345 83 317 5.0 9.0 0.00 0.00 0.00 38 1015.4
20210618190845 84 198 4.0 14.0 0.00 0.00 0.00 36 1015.5
20210618190345 84 200 3.0 11.0 0.00 0.00 0.00 40 1015.6
20210618185845 84 178 3.0 7.0 0.00 0.00 0.00 43 1015.6
20210618185345 83 129 3.0 11.0 0.00 0.00 0.00 41 1015.6
20210618184845 83 245 4.0 10.0 0.00 0.00 0.00 41 1015.6
20210618184345 83 242 4.0 10.0 0.00 0.00 0.00 41 1015.6
20210618183845 83 244 4.0 15.0 0.00 0.00 0.00 41 1015.6
20210618183345 83 196 4.0 11.0 0.00 0.00 0.00 44 1015.7
20210618182845 83 240 5.0 9.0 0.00 0.00 0.00 38 1015.7
20210618182345 83 233 5.0 12.0 0.00 0.00 0.00 39 1015.9
20210618181845 83 131 5.0 11.0 0.00 0.00 0.00 42 1015.8
20210618181345 83 286 5.0 12.0 0.00 0.00 0.00 37 1015.9
20210618180845 83 236 4.0 14.0 0.00 0.00 0.00 37 1015.9
20210618180345 83 178 4.0 11.0 0.00 0.00 0.00 40 1016.1
20210618175845 83 227 4.0 9.0 0.00 0.00 0.00 38 1016.0
20210618175345 83 157 4.0 9.0 0.00 0.00 0.00 42 1016.0
20210618174846 83 219 5.0 8.0 0.00 0.00 0.00 40 1016.1
20210618174345 83 231 4.0 12.0 0.00 0.00 0.00 40 1016.2
20210618173846 83 219 3.0 9.0 0.00 0.00 0.00 44 1016.2
20210618173346 82 250 3.0 9.0 0.00 0.00 0.00 41 1016.1
20210618172846 82 229 4.0 12.0 0.00 0.00 0.00 39 1016.3
20210618172346 82 240 4.0 11.0 0.00 0.00 0.00 40 1016.3
20210618171846 82 257 4.0 11.0 0.00 0.00 0.00 46 1016.4
20210618171346 82 175 4.0 3.0 0.00 0.00 0.00 44 1016.5
20210618170846 82 126 3.0 10.0 0.00 0.00 0.00 42 1016.7
20210618170346 82 221 3.0 6.0 0.00 0.00 0.00 43 1016.5
20210618165846 81 211 5.0 12.0 0.00 0.00 0.00 44 1016.7
20210618165346 81 248 4.0 10.0 0.00 0.00 0.00 41 1016.7
20210618164846 81 277 5.0 11.0 0.00 0.00 0.00 44 1016.8
20210618164346 81 271 5.0 11.0 0.00 0.00 0.00 44 1016.8
20210618163846 81 169 3.0 14.0 0.00 0.00 0.00 45 1016.8
20210618163346 81 205 3.0 9.0 0.00 0.00 0.00 44 1016.8
20210618162846 81 218 3.0 9.0 0.00 0.00 0.00 50 1016.9